Regional Weather Roundup
Issued by NWS Cleveland, OH

Home | Current Version | Previous Version | Graphics & Text | Print | Product List | Glossary On
Versions: 1 2 3 4 5 6 7 8 9 10 11 12 13 14 15 16 17 18 19 20 21 22 23 24 25 26 27 28 29 30 31 32 33 34 35 36 37 38 39 40 41 42 43 44 45 46 47 48 49 50
000
ASUS41 KCLE 282010
RWRCLE
OHIO REGIONAL WEATHER ROUNDUP
NATIONAL WEATHER SERVICE CLEVELAND, OH
400 PM EDT MON JUL 28 2014

NOTE: "FAIR" INDICATES FEW OR NO CLOUDS BELOW 12,000 FEET WITH NO
SIGNIFICANT WEATHER AND/OR OBSTRUCTIONS TO VISIBILITY.

OHZ001>008-015>018-024>027-034-035-043-044-282100-
   NORTHWEST OHIO

CITY           SKY/WX    TMP DP  RH WIND       PRES   REMARKS
DEFIANCE       PTSUNNY   74  54  49 NW12      29.95S
FINDLAY        PTSUNNY   73  52  47 NW17      29.93R
TOLEDO EXPRESS PTSUNNY   73  51  46 N12G20    29.93R
TOLEDO EXEC    PTSUNNY   72  50  45 N12       29.93S
LIMA           PTSUNNY   73  55  53 NW12      29.95R
$$

OHZ009>014-019>023-028>033-038-089-282100-
   NORTHEAST OHIO

CITY           SKY/WX    TMP DP  RH WIND       PRES   REMARKS
CLE-HOPKINS    CLOUDY    67  55  65 N20G28    29.93R
CLE-LAKEFRONT  PTSUNNY   67  55  65 NW23G30   29.89R
CUY CO. ARPT   NOT AVBL
LORAIN-ELYRIA  PTSUNNY   70  54  56 N14       29.93R
ASHTABULA      LGT RAIN  63  56  78 NW13G23   29.85R
AKRON-CANTON   CLOUDY    68  55  63 N17G25    29.89R
WOOSTER        PTSUNNY   69  55  60 N15G24    29.91R
MANSFIELD      PTSUNNY   69  53  56 N13G25    29.92S
YOUNGSTOWN     CLOUDY    64  58  80 NW12      29.85R
$$

OHZ042-051>053-060>062-070>072-077>081-282100-
  SOUTHWEST OHIO

CITY           SKY/WX    TMP DP  RH WIND       PRES   REMARKS
CINC-COVINGTON NOT AVBL
CINC-LUNKEN    PTSUNNY   72  60  66 W10G22    29.97S
HAMILTON       MOSUNNY   76  61  59 W7G18     29.96S
DAYTON         PTSUNNY   72  57  59 NW12      29.97R
WRIGHT-PAT AFB MOSUNNY   74  56  54 NW14      29.94S
DAYTON GENERAL MOSUNNY   74  57  55 NW12      29.95R
WILMINGTON     PTSUNNY   73  57  57 NW13      29.94S
$$

OHZ036-037-039>041-045>050-054>059-063>069-073>076-082>088-282100-
  CENTRAL AND SOUTHEAST OHIO

CITY           SKY/WX    TMP DP  RH WIND       PRES   REMARKS
COLUMBUS       PTSUNNY   75  55  49 N16G22    29.91R
OSU AIRPORT    MOSUNNY   73  56  54 N13       29.92R
BOLTON FIELD   CLOUDY    72  57  60 NW10      29.92S
RICKENBACK AFB PTSUNNY   75  52  43 NW9       29.91S
NEWARK         PTSUNNY   73  57  57 NW10      29.91R
MARION         PTSUNNY   71  53  52 N10       29.93R
LANCASTER      CLOUDY    72  58  61 N8G16     29.92R
ZANESVILLE     NOT AVBL
NEW PHILLY     CLOUDY    67  56  67 NW14G21   29.89R
$$



USA.gov is the U.S. government's official web portal to all federal, state and local government web resources and services.